Weather History for McCook, NE

Change the Weather History Date:

Tuesday, October 4, 2011

  Actual Average Record
Temperature  
Mean Temperature 79 °F 56 °F  
Max Temperature 93 °F 71 °F 96 °F (1967)
Min Temperature 64 °F 41 °F 32 °F (1911)
Cooling Degree Days 12    
Growing Degree Days 28 (Base 50)    
Moisture  
Dew Point 36 °F    
Average Humidity 25    
Maximum Humidity 40    
Minimum Humidity 9    
Precipitation  
Precipitation 0.00 in 0.06 in 0.45 in (1986)
Month to date precipitation 0.00 0.24  
Year to date precipitation 17.55 19.39  
Sea Level Pressure  
Sea Level Pressure 29.93 in    
Wind  
Wind Speed 14 mph (SSW)    
Max Wind Speed 33 mph    
Max Gust Speed 40 mph    
Visibility 10 miles    
Events      
T = Trace of Precipitation, MM = Missing Value Source: NWS Daily Summary

Daily Weather History Graph

Daily Weather History Graph

Search for Another Location

Airport:

Trip Planner

Search our weather history database for the weather conditions in past years. The results will help you decide how hot, cold, wet, or windy it might be!

Date:

Astronomy

Oct. 04, 2011 Rise Set
Actual Time 7:41 AM CDT 7:20 PM CDT
Civil Twilight 7:14 AM CDT 7:47 PM CDT
Nautical Twilight 6:42 AM CDT 8:18 PM CDT
Astronomical Twilight 6:11 AM CDT 8:50 PM CDT
Moon 3:23 PM CDT (10/4) 12:26 AM CDT (10/4)
Length of Visible Light 12h 32m
Length of Day
11h 38m
First Quarter, 56% of the Moon is Illuminated
Oct 4
First Quarter
Oct 11
Full
Oct 19
Last Quarter
Oct 26
New
Nov 2
First Quarter

Hourly Weather History & Observations

Time (CDT) Temp. Dew Point Humidity Pressure Visibility Wind Dir Wind Speed Gust Speed Precip Events Conditions
12:53 AM 66.9 °F 39.0 °F 36% 29.96 in 10.0 mi SSW 6.9 mph - N/A   Clear
1:53 AM 66.0 °F 37.0 °F 34% 29.95 in 10.0 mi SW 5.8 mph - N/A   Clear
2:53 AM 69.1 °F 39.9 °F 35% 29.94 in 10.0 mi SW 10.4 mph - N/A   Clear
3:53 AM 70.0 °F 39.0 °F 32% 29.93 in 10.0 mi SW 15.0 mph 21.9 mph N/A   Clear
4:53 AM 68.0 °F 39.0 °F 35% 29.93 in 10.0 mi SW 11.5 mph 19.6 mph N/A   Clear
5:53 AM 69.8 °F 37.4 °F 31% 30.01 in 10.0 mi SW 10.4 mph 19.6 mph N/A   Clear
6:53 AM 66.9 °F 37.9 °F 34% 29.95 in 10.0 mi SW 11.5 mph - N/A   Clear
7:53 AM 64.0 °F 39.0 °F 40% 29.98 in 10.0 mi South 10.4 mph - N/A   Clear
8:53 AM 68.0 °F 39.2 °F 35% 30.05 in 10.0 mi SW 13.8 mph 18.4 mph N/A   Clear
9:53 AM 78.1 °F 39.9 °F 25% 29.97 in 10.0 mi SSW 19.6 mph 26.5 mph N/A   Clear
10:53 AM 84.9 °F 39.9 °F 20% 29.96 in 10.0 mi South 18.4 mph 26.5 mph N/A   Clear
11:53 AM 87.1 °F 39.0 °F 18% 29.95 in 10.0 mi SSW 24.2 mph 31.1 mph N/A   Clear
12:53 PM 90.0 °F 34.0 °F 14% 29.93 in 10.0 mi South 23.0 mph 34.5 mph N/A   Clear
1:53 PM 91.0 °F 28.9 °F 11% 29.91 in 10.0 mi SSW 24.2 mph 38.0 mph N/A   Clear
2:53 PM 91.0 °F 24.1 °F 9% 29.88 in 9.0 mi South 33.4 mph 40.3 mph N/A   Clear
3:53 PM 91.0 °F 27.0 °F 10% 29.87 in 10.0 mi SSW 28.8 mph 38.0 mph N/A   Clear
4:53 PM 89.6 °F 28.4 °F 11% 29.94 in 10.0 mi SSW 29.9 mph 36.8 mph N/A   Clear
5:53 PM 87.1 °F 28.9 °F 12% 29.86 in 10.0 mi South 27.6 mph 39.1 mph N/A   Clear
6:53 PM 82.9 °F 32.0 °F 16% 29.88 in 10.0 mi South 16.1 mph 25.3 mph N/A   Clear
7:53 PM 78.1 °F 34.0 °F 20% 29.90 in 10.0 mi South 11.5 mph - N/A   Clear
8:53 PM 73.9 °F 35.1 °F 24% 29.91 in 10.0 mi South 9.2 mph - N/A   Clear
9:53 PM 72.0 °F 37.0 °F 28% 29.91 in 10.0 mi SSE 13.8 mph - N/A   Clear
10:53 PM 71.1 °F 39.9 °F 32% 29.91 in 10.0 mi SSE 15.0 mph - N/A   Clear
11:53 PM 70.0 °F 39.9 °F 33% 29.91 in 10.0 mi South 16.1 mph - N/A   Clear